Regional Weather Roundup
Issued by NWS State College, PA

Home | Current Version | Previous Version | Graphics & Text | Print | Product List | Glossary On
Versions: 1 2 3 4 5 6 7 8 9 10 11 12 13 14 15 16 17 18 19 20 21 22 23 24 25 26 27 28 29 30 31 32 33 34 35 36 37 38 39 40 41 42 43 44 45 46 47 48 49 50
000
ASUS41 KCTP 060110
RWRCTP

REGIONAL WEATHER ROUNDUP
NATIONAL WEATHER SERVICE STATE COLLEGE PA
900 PM EDT SUN JUL 05 2015

Note: "fair" indicates few or no clouds below 12,000 feet with no
significant weather and/or obstructions to visibility.

* = STATION THAT DOES NOT REPORT PRECIPITATION /E.G. RAIN...SNOW...ETC/
    THUNDER OR FOG.

PAZ002>004-007>009-013>016-020>023-029>032-060200-
WESTERN PENNSYLVANIA

CITY           SKY/WX    TMP DP  RH WIND       PRES   REMARKS
ERIE           CLOUDY    71  55  56 NE5       30.10S
MEADVILLE      MOCLDY    71  57  61 CALM      30.13R
FRANKLIN*      MOCLDY    66  55  68 CALM      30.14R
NEW CASTLE     FAIR      70  56  61 CALM      30.12R
BEAVER COUNTY  NOT AVBL
BUTLER*        CLOUDY    72  61  68 E6        30.13S
PITTSBURGH INT CLOUDY    77  59  53 NE6       30.09F
PITTSBURGH     CLOUDY    75  57  53 NE3       30.09S
INDIANA*       PTCLDY    73  64  73 E6        30.16R
LATROBE        MOCLDY    75  66  73 CALM      30.11R
WASHINGTON CO* NOT AVBL
$$

PAZ004>006-010>012-017>019-024>028-033>037-041-042-045-046-049>053-060200-
CENTRAL PENNSYLVANIA

CITY           SKY/WX    TMP DP  RH WIND       PRES   REMARKS
BRADFORD       CLOUDY    66  59  78 CALM      30.17S
DUBOIS         CLOUDY    69  57  65 E6        30.14F
CLEARFIELD     CLOUDY    69  61  75 CALM      30.16R
JOHNSTOWN      CLOUDY    69  62  78 SE7       30.17R
ALTOONA        MOCLDY    70  64  81 E5        30.16R
STATE COLLEGE  PTCLDY    70  61  73 CALM      30.15S
WILLIAMSPORT   CLOUDY    70  61  73 CALM      30.11S
SELINSGROVE    CLOUDY    69  65  86 CALM      30.13S
FT INDIANTOWN  MOCLDY    69  66  90 NW2       30.14R
CAPITAL CITY   MOCLDY    75  63  66 CALM      30.13R
HARRISBURG     CLOUDY    71  66  84 CALM      30.12R
YORK           CLOUDY    75  68  78 CALM      30.13S
$$

PAZ038>040-043-044-047-048-054-055-060>062-067>071-060200-
EASTERN PENNSYLVANIA

CITY           SKY/WX    TMP DP  RH WIND       PRES   REMARKS
SCRANTON       MOCLDY    70  59  68 E3        30.13F
MOUNT POCONO   MOCLDY    63  59  87 CALM      30.18S
ALLENTOWN      MOCLDY    74  63  68 W3        30.13R
QUAKERTOWN*    MOCLDY    72  68  88 CALM      30.15R
READING        CLOUDY    75  66  73 CALM      30.12S
LANCASTER      MOCLDY    74  67  78 CALM      30.13S
COATESVILLE    MOCLDY    73  68  83 CALM      30.16S
POTTSTOWN      CLOUDY    74  66  76 CALM      30.15R
BLUE BELL      MOCLDY    77  68  73 CALM      30.13R
DOYLESTOWN     MOCLDY    71  65  81 CALM      30.13R
WILLOW GROVE   NOT AVBL
NORTH PHILA    MOCLDY    81  62  52 SW6       30.14R
PHILADELPHIA   MOCLDY    79  66  64 S8        30.13R
$$



USA.gov is the U.S. government's official web portal to all federal, state and local government web resources and services.